Time,TemperatureF,DewpointF,PressureIn,WindDirection,WindDirectionDegrees,WindSpeedMPH,WindSpeedGustMPH,Humidity,HourlyPrecipIn,Conditions,Clouds,dailyrainin,SolarRadiationWatts/m^2,SoftwareType,DateUTC
2013-10-22 00:07:00,48.3,48.0,30.00,SE,140,5.0,7.0,98,0.00,,,0.01,0,weatherlink.com 1.10,2013-10-22 07:07:00,
2013-10-22 00:22:00,48.2,48.0,30.00,East,87,1.0,7.0,98,0.00,,,0.00,0,weatherlink.com 1.10,2013-10-22 07:22:00,
2013-10-22 00:37:00,48.1,48.0,30.00,SE,126,3.0,9.0,98,0.00,,,0.00,0,weatherlink.com 1.10,2013-10-22 07:37:00,
2013-10-22 00:52:00,48.1,48.0,30.01,SE,132,1.0,5.0,98,0.00,,,0.00,0,weatherlink.com 1.10,2013-10-22 07:52:00,
2013-10-22 01:07:00,48.1,48.0,30.00,SE,138,0.0,6.0,98,0.00,,,0.00,0,weatherlink.com 1.10,2013-10-22 08:07:00,
2013-10-22 01:22:00,48.0,48.0,30.00,ESE,111,1.0,4.0,98,0.00,,,0.00,0,weatherlink.com 1.10,2013-10-22 08:22:00,
2013-10-22 01:37:00,47.7,47.0,30.00,SE,127,0.0,3.0,98,0.00,,,0.00,0,weatherlink.com 1.10,2013-10-22 08:37:00,
2013-10-22 01:52:00,47.6,47.0,30.01,SSE,149,0.0,5.0,98,0.00,,,0.00,0,weatherlink.com 1.10,2013-10-22 08:52:00,
2013-10-22 02:07:00,47.4,47.0,30.01,East,96,0.0,2.0,98,0.00,,,0.00,0,weatherlink.com 1.10,2013-10-22 09:07:00,
2013-10-22 02:22:00,47.4,47.0,30.01,East,96,1.0,2.0,98,0.00,,,0.00,0,weatherlink.com 1.10,2013-10-22 09:22:00,
2013-10-22 02:37:00,47.2,47.0,30.01,NNE,28,0.0,3.0,98,0.00,,,0.00,0,weatherlink.com 1.10,2013-10-22 09:37:00,
2013-10-22 02:52:00,46.9,46.0,30.01,NE,42,0.0,4.0,98,0.00,,,0.00,0,weatherlink.com 1.10,2013-10-22 09:52:00,
2013-10-22 03:07:00,47.0,47.0,30.01,NE,42,0.0,1.0,98,0.00,,,0.00,0,weatherlink.com 1.10,2013-10-22 10:07:00,
2013-10-22 03:22:00,46.6,46.0,30.01,NE,42,0.0,1.0,98,0.00,,,0.00,0,weatherlink.com 1.10,2013-10-22 10:22:00,
2013-10-22 03:37:00,46.5,46.0,30.01,NE,42,0.0,1.0,98,0.00,,,0.00,0,weatherlink.com 1.10,2013-10-22 10:37:00,
2013-10-22 03:52:00,46.4,46.0,30.00,NE,42,0.0,2.0,98,0.00,,,0.00,0,weatherlink.com 1.10,2013-10-22 10:52:00,
2013-10-22 04:07:00,46.6,46.0,30.01,NE,42,0.0,2.0,98,0.00,,,0.00,0,weatherlink.com 1.10,2013-10-22 11:07:00,
2013-10-22 04:22:00,46.4,46.0,30.01,NE,42,0.0,3.0,98,0.00,,,0.00,0,weatherlink.com 1.10,2013-10-22 11:22:00,
2013-10-22 04:37:00,46.3,46.0,30.00,NNE,19,1.0,4.0,98,0.00,,,0.00,0,weatherlink.com 1.10,2013-10-22 11:37:00,
2013-10-22 04:52:00,45.8,45.0,30.00,NNE,15,2.0,5.0,98,0.00,,,0.00,0,weatherlink.com 1.10,2013-10-22 11:52:00,
2013-10-22 05:08:00,45.7,45.0,30.00,NNE,15,0.0,5.0,98,0.00,,,0.00,0,weatherlink.com 1.10,2013-10-22 12:08:00,
2013-10-22 05:23:00,45.4,45.0,30.00,NNE,12,2.0,5.0,98,0.00,,,0.00,0,weatherlink.com 1.10,2013-10-22 12:23:00,
2013-10-22 05:38:00,44.9,44.0,30.00,NNE,26,1.0,6.0,98,0.00,,,0.00,0,weatherlink.com 1.10,2013-10-22 12:38:00,
2013-10-22 05:53:00,44.3,44.0,30.00,NNE,26,0.0,3.0,98,0.00,,,0.00,0,weatherlink.com 1.10,2013-10-22 12:53:00,
2013-10-22 06:08:00,43.3,43.0,30.00,NNE,26,0.0,2.0,98,0.00,,,0.00,0,weatherlink.com 1.10,2013-10-22 13:08:00,
2013-10-22 06:23:00,42.7,42.0,30.00,NNE,26,0.0,2.0,98,0.00,,,0.00,0,weatherlink.com 1.10,2013-10-22 13:23:00,
2013-10-22 06:38:00,42.3,42.0,30.00,NNE,26,0.0,2.0,98,0.00,,,0.00,0,weatherlink.com 1.10,2013-10-22 13:38:00,
2013-10-22 06:53:00,41.5,41.0,30.01,NNE,26,1.0,3.0,98,0.00,,,0.00,0,weatherlink.com 1.10,2013-10-22 13:53:00,
2013-10-22 07:08:00,41.4,41.0,30.01,NNE,26,1.0,3.0,98,0.00,,,0.00,0,weatherlink.com 1.10,2013-10-22 14:08:00,
2013-10-22 07:23:00,41.6,41.0,30.01,NNE,26,0.0,2.0,98,0.00,,,0.00,0,weatherlink.com 1.10,2013-10-22 14:23:00,
2013-10-22 07:38:00,41.5,41.0,30.01,North,5,0.0,3.0,98,0.00,,,0.00,11,weatherlink.com 1.10,2013-10-22 14:38:00,
2013-10-22 07:53:00,42.3,42.0,30.01,North,5,3.0,3.0,98,0.00,,,0.00,32,weatherlink.com 1.10,2013-10-22 14:53:00,
2013-10-22 08:08:00,43.1,43.0,30.01,NNE,21,1.0,3.0,98,0.00,,,0.00,67,weatherlink.com 1.10,2013-10-22 15:08:00,
2013-10-22 08:23:00,42.9,42.0,30.02,NNE,21,0.0,4.0,98,0.00,,,0.00,116,weatherlink.com 1.10,2013-10-22 15:23:00,
2013-10-22 08:38:00,43.5,43.0,30.02,NNE,21,0.0,1.0,99,0.00,,,0.00,156,weatherlink.com 1.10,2013-10-22 15:38:00,
2013-10-22 08:53:00,44.9,45.0,30.03,ESE,121,1.0,5.0,99,0.00,,,0.00,130,weatherlink.com 1.10,2013-10-22 15:53:00,
2013-10-22 09:08:00,45.7,46.0,30.03,SE,136,2.0,4.0,99,0.00,,,0.00,107,weatherlink.com 1.10,2013-10-22 16:08:00,
2013-10-22 09:23:00,46.3,46.0,30.03,SE,138,0.0,3.0,99,0.00,,,0.00,123,weatherlink.com 1.10,2013-10-22 16:23:00,
2013-10-22 09:38:00,46.8,47.0,30.03,SSE,159,0.0,4.0,99,0.00,,,0.00,134,weatherlink.com 1.10,2013-10-22 16:38:00,
2013-10-22 09:53:00,47.3,47.0,30.03,SE,139,0.0,3.0,99,0.00,,,0.00,153,weatherlink.com 1.10,2013-10-22 16:53:00,
2013-10-22 10:08:00,47.9,48.0,30.04,SSE,163,2.0,3.0,99,0.00,,,0.00,162,weatherlink.com 1.10,2013-10-22 17:08:00,
2013-10-22 10:23:00,48.1,48.0,30.04,SE,128,5.0,6.0,99,0.00,,,0.00,232,weatherlink.com 1.10,2013-10-22 17:23:00,
2013-10-22 10:38:00,48.4,48.0,30.05,SSE,151,3.0,5.0,99,0.01,,,0.01,232,weatherlink.com 1.10,2013-10-22 17:38:00,
2013-10-22 10:53:00,48.8,49.0,30.04,South,173,0.0,5.0,99,0.01,,,0.01,221,weatherlink.com 1.10,2013-10-22 17:53:00,
2013-10-22 11:08:00,49.0,49.0,30.04,SSE,155,0.0,3.0,99,0.01,,,0.01,265,weatherlink.com 1.10,2013-10-22 18:08:00,
2013-10-22 11:23:00,49.0,49.0,30.04,SSE,160,0.0,2.0,98,0.01,,,0.01,304,weatherlink.com 1.10,2013-10-22 18:23:00,
2013-10-22 11:38:00,49.8,49.0,30.04,South,176,3.0,5.0,98,0.00,,,0.01,330,weatherlink.com 1.10,2013-10-22 18:38:00,
2013-10-22 11:53:00,49.6,49.0,30.04,SSW,192,0.0,5.0,96,0.00,,,0.01,334,weatherlink.com 1.10,2013-10-22 18:53:00,
2013-10-22 12:08:00,49.4,48.0,30.04,SW,221,4.0,6.0,95,0.00,,,0.01,325,weatherlink.com 1.10,2013-10-22 19:08:00,
2013-10-22 12:23:00,48.3,47.0,30.03,WSW,240,0.0,5.0,94,0.00,,,0.01,394,weatherlink.com 1.10,2013-10-22 19:23:00,
2013-10-22 12:38:00,48.6,47.0,30.03,West,265,3.0,5.0,95,0.00,,,0.01,352,weatherlink.com 1.10,2013-10-22 19:38:00,
2013-10-22 12:53:00,50.0,49.0,30.02,WSW,237,1.0,7.0,96,0.00,,,0.01,366,weatherlink.com 1.10,2013-10-22 19:53:00,
2013-10-22 13:08:00,50.4,49.0,30.02,SW,229,0.0,5.0,94,0.00,,,0.01,350,weatherlink.com 1.10,2013-10-22 20:08:00,
2013-10-22 13:23:00,50.2,49.0,30.02,SW,231,4.0,8.0,94,0.00,,,0.01,352,weatherlink.com 1.10,2013-10-22 20:23:00,
2013-10-22 13:38:00,50.8,49.0,30.01,SW,218,4.0,8.0,93,0.00,,,0.01,299,weatherlink.com 1.10,2013-10-22 20:38:00,
2013-10-22 13:54:00,50.5,49.0,30.01,WSW,241,1.0,6.0,94,0.00,,,0.01,316,weatherlink.com 1.10,2013-10-22 20:54:00,
2013-10-22 14:09:00,50.7,49.0,30.00,West,264,4.0,7.0,94,0.00,,,0.01,230,weatherlink.com 1.10,2013-10-22 21:09:00,
2013-10-22 14:24:00,51.0,50.0,30.00,SW,235,3.0,8.0,95,0.00,,,0.01,283,weatherlink.com 1.10,2013-10-22 21:24:00,
2013-10-22 14:39:00,51.4,50.0,29.99,WSW,252,0.0,7.0,95,0.00,,,0.01,271,weatherlink.com 1.10,2013-10-22 21:39:00,
2013-10-22 14:54:00,51.8,50.0,29.99,SW,234,7.0,9.0,94,0.00,,,0.01,264,weatherlink.com 1.10,2013-10-22 21:54:00,
2013-10-22 15:09:00,52.4,51.0,29.99,WSW,251,5.0,8.0,94,0.00,,,0.01,315,weatherlink.com 1.10,2013-10-22 22:09:00,
2013-10-22 15:24:00,53.0,51.0,29.98,SW,236,4.0,8.0,93,0.00,,,0.01,366,weatherlink.com 1.10,2013-10-22 22:24:00,
2013-10-22 15:39:00,53.5,51.0,29.98,WSW,249,3.0,10.0,92,0.00,,,0.01,404,weatherlink.com 1.10,2013-10-22 22:39:00,
2013-10-22 15:54:00,54.2,52.0,29.98,SW,223,2.0,10.0,91,0.00,,,0.01,336,weatherlink.com 1.10,2013-10-22 22:54:00,
2013-10-22 16:09:00,55.4,52.0,29.98,SW,233,5.0,8.0,89,0.00,,,0.01,512,weatherlink.com 1.10,2013-10-22 23:09:00,
2013-10-22 16:24:00,55.4,52.0,29.98,WSW,257,3.0,9.0,87,0.00,,,0.01,371,weatherlink.com 1.10,2013-10-22 23:24:00,
2013-10-22 16:39:00,54.8,52.0,29.97,WSW,257,2.0,8.0,89,0.00,,,0.01,221,weatherlink.com 1.10,2013-10-22 23:39:00,
2013-10-22 16:54:00,54.6,52.0,29.97,West,265,4.0,8.0,89,0.00,,,0.01,262,weatherlink.com 1.10,2013-10-22 23:54:00,
2013-10-22 17:09:00,54.4,52.0,29.97,SW,229,1.0,6.0,90,0.00,,,0.01,250,weatherlink.com 1.10,2013-10-23 00:09:00,
2013-10-22 17:24:00,54.8,51.0,29.96,SW,231,3.0,8.0,88,0.00,,,0.01,149,weatherlink.com 1.10,2013-10-23 00:24:00,
2013-10-22 17:39:00,54.4,51.0,29.96,West,262,1.0,6.0,89,0.00,,,0.01,128,weatherlink.com 1.10,2013-10-23 00:39:00,
2013-10-22 17:54:00,53.6,51.0,29.96,West,279,3.0,8.0,90,0.00,,,0.01,69,weatherlink.com 1.10,2013-10-23 00:54:00,
2013-10-22 18:09:00,52.5,50.0,29.96,West,281,1.0,7.0,92,0.00,,,0.01,33,weatherlink.com 1.10,2013-10-23 01:09:00,
2013-10-22 18:24:00,52.3,50.0,29.95,West,276,0.0,1.0,93,0.00,,,0.01,5,weatherlink.com 1.10,2013-10-23 01:24:00,
2013-10-22 18:39:00,52.2,50.0,29.95,West,276,0.0,0.0,92,0.00,,,0.01,0,weatherlink.com 1.10,2013-10-23 01:39:00,
2013-10-22 18:54:00,51.3,49.0,29.95,North,10,0.0,3.0,93,0.00,,,0.01,0,weatherlink.com 1.10,2013-10-23 01:54:00,
2013-10-22 19:09:00,50.6,49.0,29.95,North,10,1.0,3.0,94,0.00,,,0.01,0,weatherlink.com 1.10,2013-10-23 02:09:00,
2013-10-22 19:24:00,50.0,48.0,29.95,North,9,0.0,2.0,93,0.00,,,0.01,0,weatherlink.com 1.10,2013-10-23 02:24:00,
2013-10-22 19:39:00,49.0,47.0,29.95,North,9,2.0,2.0,94,0.00,,,0.01,0,weatherlink.com 1.10,2013-10-23 02:39:00,
2013-10-22 19:54:00,48.7,47.0,29.95,North,9,2.0,3.0,95,0.00,,,0.01,0,weatherlink.com 1.10,2013-10-23 02:54:00,
2013-10-22 20:09:00,48.9,48.0,29.95,North,9,0.0,2.0,95,0.00,,,0.01,0,weatherlink.com 1.10,2013-10-23 03:09:00,
2013-10-22 20:24:00,48.7,47.0,29.95,North,9,0.0,0.0,95,0.00,,,0.01,0,weatherlink.com 1.10,2013-10-23 03:24:00,
2013-10-22 20:39:00,48.2,47.0,29.95,North,9,0.0,0.0,96,0.00,,,0.01,0,weatherlink.com 1.10,2013-10-23 03:39:00,
2013-10-22 20:54:00,47.9,47.0,29.96,North,9,1.0,2.0,96,0.00,,,0.01,0,weatherlink.com 1.10,2013-10-23 03:54:00,
2013-10-22 21:09:00,47.8,47.0,29.96,North,9,2.0,2.0,97,0.00,,,0.01,0,weatherlink.com 1.10,2013-10-23 04:09:00,
2013-10-22 21:24:00,47.9,47.0,29.96,North,9,1.0,2.0,97,0.00,,,0.01,0,weatherlink.com 1.10,2013-10-23 04:24:00,
2013-10-22 21:39:00,47.6,47.0,29.96,North,9,0.0,2.0,97,0.00,,,0.01,0,weatherlink.com 1.10,2013-10-23 04:39:00,
2013-10-22 21:54:00,46.7,46.0,29.96,North,9,1.0,3.0,96,0.00,,,0.01,0,weatherlink.com 1.10,2013-10-23 04:54:00,
2013-10-22 22:09:00,46.9,46.0,29.96,North,9,2.0,3.0,97,0.00,,,0.01,0,weatherlink.com 1.10,2013-10-23 05:09:00,
2013-10-22 22:24:00,47.2,47.0,29.96,North,9,2.0,3.0,98,0.00,,,0.01,0,weatherlink.com 1.10,2013-10-23 05:24:00,
2013-10-22 22:39:00,47.3,47.0,29.96,North,9,2.0,3.0,98,0.00,,,0.01,0,weatherlink.com 1.10,2013-10-23 05:39:00,
2013-10-22 22:54:00,46.8,46.0,29.96,North,9,0.0,2.0,97,0.00,,,0.01,0,weatherlink.com 1.10,2013-10-23 05:54:00,
2013-10-22 23:09:00,45.2,44.0,29.96,North,9,0.0,2.0,96,0.00,,,0.01,0,weatherlink.com 1.10,2013-10-23 06:09:00,
2013-10-22 23:24:00,44.0,43.0,29.96,North,9,0.0,1.0,96,0.00,,,0.01,0,weatherlink.com 1.10,2013-10-23 06:24:00,
2013-10-22 23:39:00,43.9,43.0,29.96,North,9,0.0,1.0,97,0.00,,,0.01,0,weatherlink.com 1.10,2013-10-23 06:39:00,
2013-10-22 23:54:00,43.5,43.0,29.96,North,9,0.0,2.0,97,0.00,,,0.01,0,weatherlink.com 1.10,2013-10-23 06:54:00,